Regional Weather Roundup
Issued by NWS Northern Indiana

Home | Current Version | Previous Version | Graphics & Text | Print | Product List | Glossary On
Versions: 1 2 3 4 5 6 7 8 9 10 11 12 13 14 15 16 17 18 19 20 21 22 23 24 25 26 27 28 29 30 31 32 33 34 35 36 37 38 39 40 41 42 43 44 45 46 47 48 49 50
000
ASUS43 KIWX 191500
RWRIWX

KIWX WEATHER ROUNDUP
NATIONAL WEATHER SERVICE NORTHERN INDIANA
1100 AM EDT SAT APR 19 2014

NOTE: "FAIR" INDICATES FEW OR NO CLOUDS BELOW 12,000 FEET WITH NO
SIGNIFICANT WEATHER AND/OR OBSTRUCTIONS TO VISIBILITY.

* THESE STATIONS ARE NOT UNDER NWS QUALITY CONTROL. THEY ALSO MAY NOT
  REPORT WEATHER SUCH AS PRECIPITATION OR FOG.

INZ001>027-191600-
NORTHERN INDIANA

CITY           SKY/WX    TMP DP  RH WIND       PRES   REMARKS
GARY*          SUNNY     50  39  66 NE6       30.38F
VALPARAISO     SUNNY     52  37  56 E10       30.38S
SOUTH BEND     SUNNY     50  35  56 E13       30.40S
GOSHEN         SUNNY     50  36  58 E13       30.40S
ANGOLA*        SUNNY     45  34  65 SE8       30.41S
FORT WAYNE     SUNNY     48  35  60 E14       30.41S
PERU/GRISSOM   SUNNY     51  41  67 E16       30.37R

$$
INZ028>050-191600-
CENTRAL INDIANA

CITY           SKY/WX    TMP DP  RH WIND       PRES   REMARKS
LAFAYETTE      SUNNY     53  40  61 E12       30.35S
KOKOMO*        SUNNY     50  39  66 E13       30.37S
MUNCIE*        SUNNY     51  40  65 E12       30.37R
INDIANAPOLIS   SUNNY     55  42  61 NE9       30.35R

$$
MIZ043>046-050>051-056>058-064>065-071>073-077>080-191600-
SOUTHWEST LOWER MICHIGAN

CITY           SKY/WX    TMP DP  RH WIND       PRES   REMARKS
BATTLE CREEK   SUNNY     46  30  53 E9        30.44R
BENTON HARBOR  SUNNY     48  34  58 E12       30.40S
COLDWATER*     SUNNY     47  32  54 E10       30.42F
HILLSDALE*     SUNNY     48  30  50 E12       30.42S
HOLLAND        SUNNY     47  32  56 E12       30.43F
GRAND RAPIDS   MOSUNNY   45  30  55 E15       30.45S
KALAMAZOO      SUNNY     47  31  53 E7        30.43S
STURGIS*       SUNNY     46  34  61 E9        30.41F
THREE RIVERS*  FAIR      47  32  56 E8        30.42F

$$
OHZ001>008-015>018-024>025-191600-
NORTHWEST OHIO

CITY           SKY/WX    TMP DP  RH WIND       PRES   REMARKS
DEFIANCE       SUNNY     48  34  58 E10       30.44R
FINDLAY        SUNNY     48  34  58 NE14      30.41S
TOLEDO EXPRESS SUNNY     47  30  51 E13       30.44S
TOLEDO METCALF SUNNY     45  32  60 NE12G22   30.45F
LIMA           SUNNY     50  36  58 NE13      30.39S

$$
&&



USA.gov is the U.S. government's official web portal to all federal, state and local government web resources and services.